F1IQH-3 Weather Reports


Display with metric or nautical units.
time (UTC)temp
F
wind
direction
speed
MPH
gust
MPH
rain 1hr
in
rain 24hr
in
rain mn
in
humidity
%
barometer
mb
20260902044039 51 100 2.0 4.0 0.00 0.00 0.00 99 1021.5
20260902043039 51 101 2.0 3.0 0.00 0.00 0.00 99 1021.6
20260902042039 52 96 2.0 3.0 0.00 0.00 0.00 98 1021.6
20260902041039 52 96 2.0 3.0 0.00 0.00 0.00 98 1021.6
20260902040039 52 90 2.0 3.0 0.00 0.00 0.00 97 1021.6
20260902035039 53 53 1.0 4.0 0.00 0.00 0.00 96 1021.5
20260902034040 53 53 1.0 4.0 0.00 0.00 0.00 96 1021.5
20260902033040 53 22 1.0 4.0 0.00 0.00 0.00 95 1021.4
20260902032040 54 9 1.0 5.0 0.00 0.00 0.00 94 1021.4
20260902031039 54 9 1.0 5.0 0.00 0.00 0.00 94 1021.4
20260902030039 54 18 1.0 5.0 0.00 0.00 0.00 94 1021.4
20260902025039 54 40 2.0 5.0 0.00 0.00 0.00 94 1021.4
20260902024039 54 40 2.0 5.0 0.00 0.00 0.00 94 1021.4
20260902023039 54 56 2.0 5.0 0.00 0.00 0.00 94 1021.4
20260902022039 54 66 3.0 4.0 0.00 0.00 0.00 94 1021.4
20260902021039 54 66 3.0 4.0 0.00 0.00 0.00 94 1021.4
20260902020039 54 72 3.0 4.0 0.00 0.00 0.00 94 1021.4
20260902015039 54 81 3.0 4.0 0.00 0.00 0.00 95 1021.3
20260902014039 54 81 3.0 4.0 0.00 0.00 0.00 95 1021.3
20260902013039 54 73 2.0 4.0 0.00 0.00 0.00 94 1021.3
20260902012039 55 80 2.0 4.0 0.00 0.00 0.00 94 1021.3
20260902011039 55 80 2.0 4.0 0.00 0.00 0.00 94 1021.3
20260902010039 55 80 2.0 4.0 0.00 0.00 0.00 93 1021.2
20260902005040 56 85 2.0 4.0 0.00 0.00 0.00 92 1021.2
20260902004040 56 85 2.0 4.0 0.00 0.00 0.00 92 1021.2
20260902003040 56 79 2.0 3.0 0.00 0.00 0.00 91 1021.1
20260902002040 57 77 2.0 3.0 0.00 0.00 0.00 90 1021.1
20260902001040 57 77 2.0 3.0 0.00 0.00 0.00 90 1021.1
20260902000040 57 69 2.0 3.0 0.00 0.00 0.00 88 1021.1
20260901235040 58 50 2.0 4.0 0.00 0.00 0.00 87 1021.2
20260901234040 58 50 2.0 4.0 0.00 0.00 0.00 87 1021.2
20260901233040 58 30 2.0 4.0 0.00 0.00 0.00 85 1021.3
20260901232041 59 27 2.0 4.0 0.00 0.00 0.00 83 1021.3
20260901231039 59 27 2.0 4.0 0.00 0.00 0.00 83 1021.3
20260901225039 60 45 2.0 5.0 0.00 0.00 0.00 80 1021.2
20260901224039 60 45 2.0 5.0 0.00 0.00 0.00 80 1021.2
20260901223039 60 65 3.0 5.0 0.00 0.00 0.00 79 1020.8
20260901221040 60 70 3.0 5.0 0.00 0.00 0.00 77 1020.8
20260901220040 61 75 3.0 5.0 0.00 0.00 0.00 76 1020.8
20260901215040 61 83 4.0 5.0 0.00 0.00 0.00 75 1020.7
20260901214040 61 83 4.0 5.0 0.00 0.00 0.00 75 1020.7
20260901213040 62 86 4.0 6.0 0.00 0.00 0.00 73 1020.7
20260901212039 62 90 4.0 6.0 0.00 0.00 0.00 72 1020.7
20260901211039 62 90 4.0 6.0 0.00 0.00 0.00 72 1020.7
20260901210039 63 90 4.0 6.0 0.00 0.00 0.00 71 1020.7
20260901205039 64 90 3.0 6.0 0.00 0.00 0.00 69 1020.7
20260901204039 64 90 3.0 6.0 0.00 0.00 0.00 69 1020.7
20260901203039 64 86 3.0 6.0 0.00 0.00 0.00 68 1020.6
20260901202038 65 86 3.0 6.0 0.00 0.00 0.00 66 1020.6
20260901201038 65 86 3.0 6.0 0.00 0.00 0.00 66 1020.6
20260901200038 66 86 3.0 6.0 0.00 0.00 0.00 65 1020.6
20260901195730 66 86 3.0 6.0 0.00 0.00 0.00 65 1020.6
20260901194730 66 90 3.0 6.0 0.00 0.00 0.00 63 1020.5
20260901193729 67 86 3.0 5.0 0.00 0.00 0.00 61 1020.6
20260901192730 68 86 3.0 5.0 0.00 0.00 0.00 61 1020.4
20260901191730 69 86 3.0 5.0 0.00 0.00 0.00 59 1020.3
20260901190730 69 86 3.0 5.0 0.00 0.00 0.00 59 1020.3
20260901185730 71 75 3.0 4.0 0.00 0.00 0.00 56 1020.1
20260901184730 72 58 2.0 4.0 0.00 0.00 0.00 53 1019.9
20260901183730 72 58 2.0 4.0 0.00 0.00 0.00 53 1019.9
20260901181729 75 21 2.0 3.0 0.00 0.00 0.00 47 1019.6
20260901180729 75 21 2.0 3.0 0.00 0.00 0.00 47 1019.6
20260901175729 76 8 2.0 2.0 0.00 0.00 0.00 45 1019.5
20260901174729 76 0 1.0 2.0 0.00 0.00 0.00 43 1019.5
20260901173729 76 0 1.0 2.0 0.00 0.00 0.00 43 1019.5
20260901171729 78 315 1.0 2.0 0.00 0.00 0.00 40 1019.5
20260901170729 78 315 1.0 2.0 0.00 0.00 0.00 40 1019.5
20260901165730 78 288 1.0 2.0 0.00 0.00 0.00 39 1019.5
20260901164730 78 256 1.0 3.0 0.00 0.00 0.00 39 1019.5
20260901163730 78 79 3.0 5.0 0.00 0.00 0.00 39 1019.5
20260901162730 78 82 3.0 5.0 0.00 0.00 0.00 36 1019.8
20260901161730 78 86 3.0 5.0 0.00 0.00 0.00 36 1019.9
20260901160730 78 86 3.0 5.0 0.00 0.00 0.00 36 1019.9
20260901155730 79 85 2.0 5.0 0.00 0.00 0.00 36 1020.0
20260901154729 79 72 2.0 5.0 0.00 0.00 0.00 36 1020.0
20260901153729 79 72 2.0 5.0 0.00 0.00 0.00 36 1020.0
20260901152729 79 60 2.0 5.0 0.00 0.00 0.00 36 1020.1
20260901151729 79 45 2.0 5.0 0.00 0.00 0.00 36 1020.2
20260901150729 79 45 2.0 5.0 0.00 0.00 0.00 36 1020.2
20260901145729 79 40 2.0 5.0 0.00 0.00 0.00 36 1020.3
20260901144729 79 40 2.0 6.0 0.00 0.00 0.00 36 1020.5
20260901143730 79 40 2.0 6.0 0.00 0.00 0.00 36 1020.5
20260901142730 79 36 2.0 6.0 0.00 0.00 0.00 36 1020.6
20260901141729 79 23 2.0 6.0 0.00 0.00 0.00 36 1020.7
20260901140731 79 23 2.0 6.0 0.00 0.00 0.00 36 1020.7
20260901135729 78 337 2.0 6.0 0.00 0.00 0.00 37 1020.7
20260901134730 78 302 3.0 6.0 0.00 0.00 0.00 38 1020.7
20260901133730 78 324 2.0 7.0 0.00 0.00 0.00 37 1020.9
20260901130730 78 108 1.0 6.0 0.00 0.00 0.00 38 1021.0
20260901125729 77 90 1.0 6.0 0.00 0.00 0.00 39 1021.1
20260901124730 77 346 1.0 6.0 0.00 0.00 0.00 39 1021.2
20260901123731 77 346 1.0 6.0 0.00 0.00 0.00 39 1021.2
20260901121730 77 320 3.0 6.0 0.00 0.00 0.00 41 1021.5
20260901120730 77 320 3.0 6.0 0.00 0.00 0.00 41 1021.5
20260901115730 76 312 3.0 6.0 0.00 0.00 0.00 42 1021.6
20260901114730 76 299 3.0 6.0 0.00 0.00 0.00 43 1021.8
20260901113729 76 299 3.0 6.0 0.00 0.00 0.00 43 1021.8
20260901112729 76 281 2.0 6.0 0.00 0.00 0.00 44 1021.9
20260901111729 75 264 2.0 5.0 0.00 0.00 0.00 45 1022.0
20260901105729 75 256 2.0 5.0 0.00 0.00 0.00 47 1022.1
20260901104729 74 252 1.0 4.0 0.00 0.00 0.00 50 1022.2
20260901101729 73 270 1.0 4.0 0.00 0.00 0.00 57 1022.6
20260901100728 73 270 1.0 4.0 0.00 0.00 0.00 57 1022.6
20260901095731 72 261 1.0 4.0 0.00 0.00 0.00 59 1022.7
20260901094730 71 252 1.0 4.0 0.00 0.00 0.00 62 1022.7
20260901093730 71 252 1.0 4.0 0.00 0.00 0.00 62 1022.7
20260901092730 71 252 1.0 4.0 0.00 0.00 0.00 64 1022.7
20260901091730 70 239 1.0 4.0 0.00 0.00 0.00 66 1022.7
20260901090729 70 239 1.0 4.0 0.00 0.00 0.00 66 1022.7
20260901085729 69 225 1.0 4.0 0.00 0.00 0.00 68 1022.7
20260901083728 68 207 1.0 3.0 0.00 0.00 0.00 70 1022.8
20260901082730 67 180 1.0 3.0 0.00 0.00 0.00 73 1022.8
20260901081730 66 158 1.0 3.0 0.00 0.00 0.00 75 1022.8
20260901080731 66 158 1.0 3.0 0.00 0.00 0.00 75 1022.8
20260901075730 64 141 1.0 3.0 0.00 0.00 0.00 78 1022.8
20260901074730 63 121 1.0 3.0 0.00 0.00 0.00 81 1022.7
20260901073730 62 117 1.0 4.0 0.00 0.00 0.00 82 1022.9
20260901071729 59 98 2.0 3.0 0.00 0.00 0.00 89 1022.8
20260901070728 59 98 2.0 3.0 0.00 0.00 0.00 89 1022.8
20260901065730 58 98 2.0 3.0 0.00 0.00 0.00 92 1022.9
20260901064730 56 98 2.0 2.0 0.00 0.00 0.00 95 1023.0
20260901063730 56 98 2.0 2.0 0.00 0.00 0.00 95 1023.0
20260901062729 54 98 2.0 2.0 0.00 0.00 0.00 97 1023.1
20260901061729 53 99 1.0 2.0 0.00 0.00 0.00 99 1023.2
20260901060733 53 99 1.0 2.0 0.00 0.00 0.00 99 1023.2
20260901055729 53 101 1.0 2.0 0.00 0.00 0.00 100 1023.2
20260901054730 52 104 1.0 2.0 0.00 0.00 0.00 100 1023.0
20260901053730 52 104 1.0 2.0 0.00 0.00 0.00 100 1023.0
20260901052730 52 117 0.0 2.0 0.00 0.00 0.00 100 1022.9
20260901051730 52 117 0.0 3.0 0.00 0.00 0.00 100 1022.8
20260901050729 52 117 0.0 3.0 0.00 0.00 0.00 100 1022.8
20260901045729 52 108 1.0 3.0 0.00 0.00 0.00 100 1022.7
20260901044729 52 112 1.0 3.0 0.00 0.00 0.00 100 1022.6